STARLINK-30714, 57939

Orbit data source: Space-Track

STARLINK-30714, 57939 is a payload satellite owned by SpaceX/Seattle (US) in LEO that was launched on Mon, 25 Sep 2023 UTC via an FALCON 9 launch vehicle from the Air Force Western Test Range (AFWTR). Payload-class satellites include a variety of spacecraft equipped with specific instruments for various scientific and technological missions. These include communications satellites like Starlink; space stations such as the ISS; scientific satellites like the Hubble; Earth observation satellites from companies like Planet Labs, Umbra, and HawkEye 360; GPS; miniature CubeSats for education and research; and military/defense satellites.

Loading next visibility...
Identifier
57939, 2023-148E
Orbit
LEO
Country
Flag of USUS
Related business
Manufacturer
SpaceX/Seattle
Mission
Operational Commercial Communications
Bus & Motor
STARLINK V2M, Unknown motor
Mass
730 kg wet, ~700 kg dry
Launch date (UTC)
2023-09-25 (3 years ago)
Launch vehicle
FALCON 9
Launch site
Air Force Western Test Range (AFWTR)
Object type
Payload
Rocket body
Debris
Shape & HBR
Box + 2 Pan, 17.7 m
Radar Cross Section
33.884 m², Large (>1 m²)

Expand to show TLE details & history
Last TLE update: 3 days ago

TLE from 3 days ago
0 STARLINK-30714
1 57939U 23148E   26170.68163406  .00003766  00000-0  13894-3 0  9991
2 57939  53.1600 270.7393 0001295  92.2942 267.8207 15.30264991154031
Epoch: 2026-06-19T16:21Z
TLE epoch observation values (Epoch: 2026-06-19T16:21:33.182Z)
Latitude
-0.00004°
Longitude
117.44389°
Altitude
475.955 km
Speed
7.629 km/s
True Right ascension
18h 02m 57s
True Declination
0° 00' 00"
Sunlit
Object was in full shadow at epoch
Visualization orbit readout
Latitude
Unknown
Longitude
Unknown
Altitude
Unknown
Speed
Unknown
Apparent Right ascension
Unknown
Apparent Declination
Unknown
Sunlit
N/A
Visualization observer readout
Local Sidereal Time
21:30:25
Azimuth
Unknown
Elevation
Unknown
Doppler factor
Unknown
Orbital elements
Apogee altitude
476.165 km
Perigee altitude
474.39 km
Semi-major axis
6,853.414 km
Eccentricity
0.00013
Inclination
53.16°
RAAN
270.7393°
Arg. of periapsis
92.2942°
True anomaly
267.80587°
Mean anomaly
267.8207°
Eccentric anomaly
267.81329°
Mean motion
3.82545 °/min
Orbital period
94.11 mins
BSTAR
0.00013894
Loading maneuver chart data...
Computing Atmospheric mass density...
Loading historical data...
Loading historical data...
Loading historical data...
Loading historical data...
Loading historical data...
Loading historical data...
Loading historical data...

Documentation

Showing up to 5 results
|